Thompson, UT

8:51 PM MST on January 18, 2017 (GMT -0700)
Canyonlands

Weather History for KCNY - April, 2013

Change the Weather History Date:

Sunday, April 28, 2013

  Actual Average Record
Temperature  
Mean Temperature 60 °F 56 °F  
Max Temperature 81 °F 71 °F 95 °F (1992)
Min Temperature 38 °F 42 °F 28 °F (1955)
Degree Days  
Heating Degree Days 5 9  
Month to date heating degree days 420 359  
Since 1 July heating degree days 5928 5407  
Cooling Degree Days 0 0  
Month to date cooling degree days 0 0  
Year to date cooling degree days 0 0  
Growing Degree Days 10 (Base 50)    
Moisture  
Dew Point 15 °F    
Average Humidity 19    
Maximum Humidity 29    
Minimum Humidity 9    
Precipitation  
Precipitation 0.00 in 0.02 in 0.60 in (1944)
Month to date precipitation 0.42 0.64  
Year to date precipitation 1.11 2.57  
Sea Level Pressure  
Sea Level Pressure 29.90 in    
Wind  
Wind Speed 4 mph (WNW)    
Max Wind Speed 15 mph    
Max Gust Speed 18 mph    
Visibility 10 miles    
Events      
T = Trace of Precipitation, MM = Missing Value Source: NWS Daily Summary

Daily Weather History Graph

Daily Weather History Graph

Search for Another Location

Airport or City:

Trip Planner

Search our weather history database for the weather conditions in past years. The results will help you decide how hot, cold, wet, or windy it might be!

Date:

Astronomy

Apr. 28, 2013 Rise Set
Actual Time 6:24 AM MDT 8:08 PM MDT
Civil Twilight 5:56 AM MDT 8:37 PM MDT
Nautical Twilight 5:21 AM MDT 9:11 PM MDT
Astronomical Twilight 4:45 AM MDT 9:48 PM MDT
Moon 11:41 PM MDT (4/28) 8:45 AM MDT (4/28)
Length of Visible Light 14h 40m
Length of Day
13h 44m
Waning Gibbous, 88% of the Moon is Illuminated
Apr 28
Waning Gibbous
May 2
Last Quarter
May 9
New
May 17
First Quarter
May 24
Full

Hourly Weather History & Observations

Time (MDT) Temp. Windchill Dew Point Humidity Pressure Visibility Wind Dir Wind Speed Gust Speed Precip Events Conditions
12:53 AM 55.0 °F - 12.0 °F 18% 29.98 in 10.0 mi Calm Calm - N/A   Clear
1:53 AM 54.0 °F - 10.9 °F 18% 29.97 in 10.0 mi ENE 3.5 mph - N/A   Clear
2:53 AM 50.0 °F - 10.0 °F 20% 29.96 in 10.0 mi East 3.5 mph - N/A   Clear
3:53 AM 46.0 °F - 10.0 °F 23% 29.97 in 10.0 mi Calm Calm - N/A   Clear
4:53 AM 42.1 °F - 10.9 °F 28% 29.99 in 10.0 mi Calm Calm - N/A   Clear
5:53 AM 41.0 °F 39.0 °F 10.0 °F 28% 29.99 in 10.0 mi ENE 3.5 mph - N/A   Clear
6:53 AM 42.8 °F - 12.2 °F 29% 30.08 in 10.0 mi Calm Calm - N/A   Clear
7:53 AM 51.1 °F - 14.0 °F 23% 29.98 in 10.0 mi Calm Calm - N/A   Clear
8:53 AM 57.9 °F - 15.1 °F 19% 29.98 in 10.0 mi Calm Calm - N/A   Clear
9:53 AM 64.9 °F - 14.0 °F 14% 29.97 in 10.0 mi Variable 3.5 mph - N/A   Clear
10:53 AM 66.9 °F - 16.0 °F 14% 29.96 in 10.0 mi Calm Calm - N/A   Clear
11:53 AM 72.0 °F - 18.0 °F 13% 29.93 in 10.0 mi Variable 4.6 mph - N/A   Clear
12:53 PM 75.0 °F - 17.1 °F 11% 29.91 in 10.0 mi Variable 4.6 mph - N/A   Clear
1:53 PM 78.1 °F - 18.0 °F 10% 29.88 in 10.0 mi WSW 10.4 mph 17.3 mph N/A   Clear
2:53 PM 80.6 °F - 17.6 °F 10% 29.98 in 10.0 mi WNW 9.2 mph - N/A   Clear
3:53 PM 80.1 °F - 16.0 °F 9% 29.83 in 10.0 mi SSW 10.4 mph - N/A   Clear
4:53 PM 80.1 °F - 17.1 °F 9% 29.81 in 10.0 mi Variable 3.5 mph - N/A   Clear
5:53 PM 78.8 °F - 15.8 °F 9% 29.89 in 10.0 mi Variable 3.5 mph - N/A   Clear
6:53 PM 79.0 °F - 16.0 °F 9% 29.76 in 10.0 mi SW 10.4 mph 17.3 mph N/A   Clear
7:53 PM 73.9 °F - 15.1 °F 11% 29.75 in 10.0 mi West 4.6 mph - N/A   Clear
8:53 PM 71.1 °F - 16.0 °F 12% 29.75 in 10.0 mi WNW 12.7 mph 18.4 mph N/A   Clear
9:53 PM 68.0 °F - 16.0 °F 14% 29.75 in 10.0 mi West 9.2 mph - N/A   Clear
10:53 PM 63.0 °F - 17.1 °F 17% 29.77 in 10.0 mi NW 8.1 mph - N/A   Clear
11:53 PM 61.0 °F - 17.1 °F 18% 29.76 in 10.0 mi Calm Calm - N/A   Clear